Location: Unspecified
(22.6800°N, 112.2000°E)
Time: 09:51:35
(UTC+08:00)

S-56A Canister/Altair - Pass Details

Date: 31 July 2021
Orbit: 632 x 2500 km, 38.9° (Epoch: 27 September)

Event Time Altitude Azimuth Distance (km) Brightness Sun altitude
Rises 17:49:37 0° 285° (WNW) 5,915 13.8 17.6°
Reaches altitude 10° 17:53:48 10° 292° (WNW) 5,043 14.0 16.7°
Maximum altitude 18:07:33 41° 358° (N) 3,263 11.1 13.6°
Drops below altitude 10° 18:20:22 10° 65° (ENE) 4,702 11.1 10.7°
Sets 18:24:06 0° 73° (ENE) 5,493 11.4 9.9°
